Time,TemperatureF,DewpointF,PressureIn,WindDirection,WindDirectionDegrees,WindSpeedMPH,WindSpeedGustMPH,Humidity,HourlyPrecipIn,Conditions,Clouds,dailyrainin,SoftwareType,DateUTC
2013-03-04 00:00:00,18.9,15.4,30.10,NNW,338,5.0,9.0,86,0.00,,---,0.00,VWS V14.00,2013-03-04 05:00:00,
2013-03-04 00:12:00,18.9,15.4,30.10,NNW,338,4.0,8.0,86,0.00,,---,0.00,VWS V14.00,2013-03-04 05:12:00,
2013-03-04 00:20:00,18.8,15.3,30.10,NNW,338,3.0,9.0,86,0.00,,---,0.00,VWS V14.00,2013-03-04 05:20:00,
2013-03-04 00:28:00,18.6,15.4,30.10,NNW,338,7.0,10.0,87,0.00,,---,0.00,VWS V14.00,2013-03-04 05:28:00,
2013-03-04 00:36:00,18.6,15.4,30.10,NNW,338,2.0,8.0,87,0.00,,---,0.00,VWS V14.00,2013-03-04 05:36:00,
2013-03-04 00:44:00,18.5,15.3,30.11,NNW,338,0.0,8.0,87,0.00,,---,0.00,VWS V14.00,2013-03-04 05:44:00,
2013-03-04 00:52:00,18.5,15.3,30.11,NNW,338,2.0,8.0,87,0.00,,---,0.00,VWS V14.00,2013-03-04 05:52:00,
2013-03-04 01:00:00,18.5,15.3,30.11,NNW,338,5.0,8.0,87,0.00,,---,0.00,VWS V14.00,2013-03-04 06:00:00,
2013-03-04 01:08:00,18.4,15.2,30.11,NNW,338,2.0,8.0,87,0.00,,---,0.00,VWS V14.00,2013-03-04 06:08:00,
2013-03-04 01:16:00,18.4,15.4,30.11,NNW,338,5.0,8.0,88,0.00,,---,0.00,VWS V14.00,2013-03-04 06:16:00,
2013-03-04 01:24:00,18.4,15.4,30.11,NNW,338,3.0,9.0,88,0.00,,---,0.00,VWS V14.00,2013-03-04 06:24:00,
2013-03-04 01:30:00,18.4,15.4,30.11,NNW,338,5.0,9.0,88,0.00,,---,0.00,VWS V14.00,2013-03-04 06:30:00,
2013-03-04 01:40:00,18.4,15.4,30.11,NNW,338,3.0,7.0,88,0.00,,---,0.00,VWS V14.00,2013-03-04 06:40:00,
2013-03-04 01:48:00,18.4,15.4,30.11,NNW,338,5.0,7.0,88,0.00,,---,0.00,VWS V14.00,2013-03-04 06:48:00,
2013-03-04 01:56:00,18.4,15.4,30.11,NNW,338,3.0,7.0,88,0.00,,---,0.00,VWS V14.00,2013-03-04 06:56:00,
2013-03-04 02:05:00,18.4,15.4,30.11,NNW,338,4.0,5.0,88,0.00,,---,0.00,VWS V14.00,2013-03-04 07:05:00,
2013-03-04 02:13:00,18.5,15.6,30.11,NNW,338,4.0,6.0,88,0.00,,---,0.00,VWS V14.00,2013-03-04 07:13:00,
2013-03-04 02:21:00,18.5,15.6,30.11,NNW,338,4.0,7.0,88,0.00,,---,0.00,VWS V14.00,2013-03-04 07:21:00,
2013-03-04 02:29:00,18.6,15.6,30.11,NNW,338,6.0,8.0,88,0.00,,---,0.00,VWS V14.00,2013-03-04 07:29:00,
2013-03-04 02:37:00,18.6,15.6,30.11,NNW,338,4.0,6.0,88,0.00,,---,0.00,VWS V14.00,2013-03-04 07:37:00,
2013-03-04 02:45:00,18.7,15.7,30.11,NNW,338,4.0,6.0,88,0.00,,---,0.00,VWS V14.00,2013-03-04 07:45:00,
2013-03-04 02:53:00,18.8,15.8,30.11,NNW,338,2.0,6.0,88,0.00,,---,0.00,VWS V14.00,2013-03-04 07:53:00,
2013-03-04 03:00:00,18.8,15.8,30.11,NNW,338,3.0,6.0,88,0.00,,---,0.00,VWS V14.00,2013-03-04 08:00:00,
2013-03-04 03:09:00,18.9,15.9,30.11,NNW,338,1.0,6.0,88,0.00,,---,0.00,VWS V14.00,2013-03-04 08:09:00,
2013-03-04 03:17:00,19.0,16.0,30.11,NNW,338,6.0,8.0,88,0.00,,---,0.00,VWS V14.00,2013-03-04 08:17:00,
2013-03-04 03:25:00,19.1,15.9,30.11,NNW,338,3.0,9.0,87,0.00,,---,0.00,VWS V14.00,2013-03-04 08:25:00,
2013-03-04 03:30:00,19.2,16.0,30.12,NNW,338,4.0,9.0,87,0.00,,---,0.00,VWS V14.00,2013-03-04 08:30:00,
2013-03-04 03:41:00,19.3,16.1,30.12,NNW,338,4.0,7.0,87,0.00,,---,0.00,VWS V14.00,2013-03-04 08:41:00,
2013-03-04 03:49:00,19.3,15.8,30.12,NNW,338,3.0,8.0,86,0.00,,---,0.00,VWS V14.00,2013-03-04 08:49:00,
2013-03-04 03:57:00,19.4,15.9,30.12,NNW,338,2.0,8.0,86,0.00,,---,0.00,VWS V14.00,2013-03-04 08:57:00,
2013-03-04 04:05:00,19.5,16.0,30.13,NNW,338,3.0,7.0,86,0.00,,---,0.00,VWS V14.00,2013-03-04 09:05:00,
2013-03-04 04:13:00,19.5,16.0,30.13,NNW,338,1.0,8.0,86,0.00,,---,0.00,VWS V14.00,2013-03-04 09:13:00,
2013-03-04 04:21:00,19.5,16.0,30.13,NNW,338,1.0,10.0,86,0.00,,---,0.00,VWS V14.00,2013-03-04 09:21:00,
2013-03-04 04:29:00,19.5,16.0,30.14,NNW,338,2.0,10.0,86,0.00,,---,0.00,VWS V14.00,2013-03-04 09:29:00,
2013-03-04 04:37:00,19.6,16.1,30.14,NNW,338,3.0,8.0,86,0.00,,---,0.00,VWS V14.00,2013-03-04 09:37:00,
2013-03-04 04:45:00,19.7,16.2,30.14,NNW,338,4.0,8.0,86,0.00,,---,0.00,VWS V14.00,2013-03-04 09:45:00,
2013-03-04 04:53:00,19.8,16.3,30.14,NNW,338,5.0,9.0,86,0.00,,---,0.00,VWS V14.00,2013-03-04 09:53:00,
2013-03-04 05:00:00,19.9,16.4,30.14,NNW,338,2.0,9.0,86,0.00,,---,0.00,VWS V14.00,2013-03-04 10:00:00,
2013-03-04 05:09:00,19.9,16.4,30.14,NNW,338,8.0,13.0,86,0.00,,---,0.00,VWS V14.00,2013-03-04 10:09:00,
2013-03-04 05:17:00,20.0,16.8,30.14,NNW,338,2.0,13.0,87,0.00,,---,0.00,VWS V14.00,2013-03-04 10:17:00,
2013-03-04 05:25:00,20.0,16.8,30.14,NNW,338,3.0,13.0,87,0.00,,---,0.00,VWS V14.00,2013-03-04 10:25:00,
2013-03-04 05:30:00,20.0,16.8,30.14,NNW,338,6.0,13.0,87,0.00,,---,0.00,VWS V14.00,2013-03-04 10:30:00,
2013-03-04 05:41:00,20.0,16.8,30.14,NNW,338,3.0,10.0,87,0.00,,---,0.00,VWS V14.00,2013-03-04 10:41:00,
2013-03-04 05:49:00,20.0,16.8,30.14,NNW,338,5.0,10.0,87,0.00,,---,0.00,VWS V14.00,2013-03-04 10:49:00,
2013-03-04 05:57:00,20.0,17.0,30.15,NNW,338,3.0,10.0,88,0.00,,---,0.00,VWS V14.00,2013-03-04 10:57:00,
2013-03-04 06:05:00,20.0,17.0,30.15,NNW,338,3.0,7.0,88,0.00,,---,0.00,VWS V14.00,2013-03-04 11:05:00,
2013-03-04 06:13:00,20.0,17.0,30.15,NNW,338,4.0,10.0,88,0.00,,---,0.00,VWS V14.00,2013-03-04 11:13:00,
2013-03-04 06:21:00,20.0,17.0,30.15,NNW,338,2.0,10.0,88,0.00,,---,0.00,VWS V14.00,2013-03-04 11:21:00,
2013-03-04 06:29:00,20.1,17.1,30.15,NNW,338,2.0,10.0,88,0.00,,---,0.00,VWS V14.00,2013-03-04 11:29:00,
2013-03-04 06:37:00,20.2,17.2,30.16,NNW,338,3.0,7.0,88,0.00,,---,0.00,VWS V14.00,2013-03-04 11:37:00,
2013-03-04 06:45:00,20.2,17.2,30.16,NNW,338,2.0,9.0,88,0.00,,---,0.00,VWS V14.00,2013-03-04 11:45:00,
2013-03-04 06:53:00,20.2,17.2,30.16,NNW,338,4.0,9.0,88,0.00,,---,0.00,VWS V14.00,2013-03-04 11:53:00,
2013-03-04 07:00:00,20.3,17.3,30.16,NNW,338,3.0,9.0,88,0.00,,---,0.00,VWS V14.00,2013-03-04 12:00:00,
2013-03-04 07:09:00,20.3,17.3,30.16,NNW,338,3.0,8.0,88,0.00,,---,0.00,VWS V14.00,2013-03-04 12:09:00,
2013-03-04 07:17:00,20.4,17.7,30.16,NNW,338,5.0,8.0,89,0.00,,---,0.00,VWS V14.00,2013-03-04 12:17:00,
2013-03-04 07:25:00,20.5,17.8,30.16,NNW,338,4.0,9.0,89,0.00,,---,0.00,VWS V14.00,2013-03-04 12:25:00,
2013-03-04 07:33:00,20.7,18.0,30.17,NNW,338,4.0,6.0,89,0.00,,---,0.00,VWS V14.00,2013-03-04 12:33:00,
2013-03-04 07:41:00,20.8,17.8,30.17,NNW,338,4.0,9.0,88,0.00,,---,0.00,VWS V14.00,2013-03-04 12:41:00,
2013-03-04 07:49:00,20.8,17.8,30.17,NNW,338,4.0,12.0,88,0.00,,---,0.00,VWS V14.00,2013-03-04 12:49:00,
2013-03-04 07:57:00,20.9,17.9,30.17,NNW,338,5.0,12.0,88,0.00,,---,0.00,VWS V14.00,2013-03-04 12:57:00,
2013-03-04 08:05:00,21.1,17.8,30.17,NNW,338,5.0,10.0,87,0.00,,---,0.00,VWS V14.00,2013-03-04 13:05:00,
2013-03-04 08:13:00,21.2,17.9,30.18,NNW,338,3.0,10.0,87,0.00,,---,0.00,VWS V14.00,2013-03-04 13:13:00,
2013-03-04 08:21:00,21.3,18.0,30.18,NNW,338,7.0,11.0,87,0.00,,---,0.00,VWS V14.00,2013-03-04 13:21:00,
2013-03-04 08:29:00,21.5,18.0,30.18,NNW,338,6.0,11.0,86,0.00,,---,0.00,VWS V14.00,2013-03-04 13:29:00,
2013-03-04 08:37:00,21.5,18.2,30.18,NNW,338,1.0,11.0,87,0.00,,---,0.00,VWS V14.00,2013-03-04 13:37:00,
2013-03-04 08:45:00,21.6,18.1,30.18,NNW,338,5.0,13.0,86,0.00,,---,0.00,VWS V14.00,2013-03-04 13:45:00,
2013-03-04 08:53:00,21.8,18.3,30.18,NNW,338,6.0,13.0,86,0.00,,---,0.00,VWS V14.00,2013-03-04 13:53:00,
2013-03-04 09:00:00,21.8,18.5,30.18,NNW,338,8.0,16.0,87,0.00,,---,0.00,VWS V14.00,2013-03-04 14:00:00,
2013-03-04 09:09:00,21.9,18.6,30.18,NNW,338,5.0,12.0,87,0.00,,---,0.00,VWS V14.00,2013-03-04 14:09:00,
2013-03-04 09:17:00,22.0,18.7,30.18,NNW,338,4.0,12.0,87,0.00,,---,0.00,VWS V14.00,2013-03-04 14:17:00,
2013-03-04 09:25:00,22.1,18.8,30.18,NNW,338,5.0,12.0,87,0.00,,---,0.00,VWS V14.00,2013-03-04 14:25:00,
2013-03-04 09:33:00,22.2,18.9,30.18,NNW,338,6.0,10.0,87,0.00,,---,0.00,VWS V14.00,2013-03-04 14:33:00,
2013-03-04 09:41:00,22.2,18.9,30.19,NNW,338,5.0,10.0,87,0.00,,---,0.00,VWS V14.00,2013-03-04 14:41:00,
2013-03-04 09:49:00,22.3,19.0,30.19,NNW,338,5.0,10.0,87,0.00,,---,0.00,VWS V14.00,2013-03-04 14:49:00,
2013-03-04 09:57:00,22.4,19.4,30.19,NNW,338,5.0,10.0,88,0.00,,---,0.00,VWS V14.00,2013-03-04 14:57:00,
2013-03-04 10:05:00,22.6,19.6,30.19,NNW,338,3.0,7.0,88,0.00,,---,0.00,VWS V14.00,2013-03-04 15:05:00,
2013-03-04 10:13:00,22.7,19.7,30.19,NNW,338,5.0,12.0,88,0.00,,---,0.00,VWS V14.00,2013-03-04 15:13:00,
2013-03-04 10:21:00,22.7,19.7,30.19,NNW,338,3.0,12.0,88,0.00,,---,0.00,VWS V14.00,2013-03-04 15:21:00,
2013-03-04 10:29:00,22.8,19.8,30.18,NNW,338,7.0,12.0,88,0.00,,---,0.00,VWS V14.00,2013-03-04 15:29:00,
2013-03-04 10:37:00,22.7,19.7,30.19,NNW,338,5.0,14.0,88,0.00,,---,0.00,VWS V14.00,2013-03-04 15:37:00,
2013-03-04 10:45:00,22.7,19.7,30.19,NNW,338,5.0,14.0,88,0.00,,---,0.00,VWS V14.00,2013-03-04 15:45:00,
2013-03-04 10:53:00,22.7,19.7,30.19,NNW,338,5.0,14.0,88,0.00,,---,0.00,VWS V14.00,2013-03-04 15:53:00,
2013-03-04 11:00:00,22.9,19.9,30.19,NNW,338,5.0,14.0,88,0.00,,---,0.00,VWS V14.00,2013-03-04 16:00:00,
2013-03-04 11:09:00,22.9,19.9,30.19,NNW,338,7.0,10.0,88,0.00,,---,0.00,VWS V14.00,2013-03-04 16:09:00,
2013-03-04 11:18:00,23.0,20.0,30.19,NNW,338,5.0,10.0,88,0.00,,---,0.00,VWS V14.00,2013-03-04 16:18:00,
2013-03-04 11:26:00,23.0,20.0,30.19,NNW,338,2.0,10.0,88,0.00,,---,0.00,VWS V14.00,2013-03-04 16:26:00,
2013-03-04 11:34:00,22.9,19.9,30.19,NNW,338,3.0,13.0,88,0.00,,---,0.00,VWS V14.00,2013-03-04 16:34:00,
2013-03-04 11:42:00,22.9,19.9,30.19,NNW,338,6.0,13.0,88,0.00,,---,0.00,VWS V14.00,2013-03-04 16:42:00,
2013-03-04 11:50:00,22.9,20.1,30.19,NNW,338,12.0,13.0,89,0.00,,---,0.00,VWS V14.00,2013-03-04 16:50:00,
2013-03-04 11:58:00,22.9,19.9,30.19,NNW,338,6.0,13.0,88,0.00,,---,0.00,VWS V14.00,2013-03-04 16:58:00,
2013-03-04 12:06:00,23.0,20.2,30.19,NNW,338,5.0,8.0,89,0.00,,---,0.00,VWS V14.00,2013-03-04 17:06:00,
2013-03-04 12:14:00,23.1,20.4,30.19,NNW,338,6.0,8.0,89,0.00,,---,0.00,VWS V14.00,2013-03-04 17:14:00,
2013-03-04 12:22:00,23.0,20.0,30.19,NNW,338,7.0,13.0,88,0.00,,---,0.00,VWS V14.00,2013-03-04 17:22:00,
2013-03-04 12:30:00,23.1,20.1,30.19,NNW,338,3.0,14.0,88,0.00,,---,0.00,VWS V14.00,2013-03-04 17:30:00,
2013-03-04 12:38:00,23.2,20.2,30.19,NNW,338,2.0,10.0,88,0.00,,---,0.00,VWS V14.00,2013-03-04 17:38:00,
2013-03-04 12:46:00,23.3,20.3,30.19,NNW,338,6.0,11.0,88,0.00,,---,0.00,VWS V14.00,2013-03-04 17:46:00,
2013-03-04 12:54:00,23.3,20.3,30.19,NNW,338,5.0,12.0,88,0.00,,---,0.00,VWS V14.00,2013-03-04 17:54:00,
2013-03-04 13:00:00,23.3,20.0,30.19,NNW,338,5.0,12.0,87,0.00,,---,0.00,VWS V14.00,2013-03-04 18:00:00,
2013-03-04 13:10:00,23.3,20.0,30.19,NNW,338,7.0,12.0,87,0.00,,---,0.00,VWS V14.00,2013-03-04 18:10:00,
2013-03-04 13:18:00,23.5,20.2,30.19,NNW,338,6.0,12.0,87,0.00,,---,0.00,VWS V14.00,2013-03-04 18:18:00,
2013-03-04 13:26:00,23.5,19.9,30.19,NNW,338,6.0,12.0,86,0.00,,---,0.00,VWS V14.00,2013-03-04 18:26:00,
2013-03-04 13:30:00,23.6,20.0,30.19,NNW,338,6.0,12.0,86,0.00,,---,0.00,VWS V14.00,2013-03-04 18:30:00,
2013-03-04 13:34:00,23.7,20.1,30.19,NNW,338,4.0,8.0,86,0.00,,---,0.00,VWS V14.00,2013-03-04 18:34:00,
2013-03-04 13:42:00,23.9,20.1,30.19,NNW,338,8.0,12.0,85,0.00,,---,0.00,VWS V14.00,2013-03-04 18:42:00,
2013-03-04 13:50:00,23.9,20.1,30.19,NNW,338,4.0,13.0,85,0.00,,---,0.00,VWS V14.00,2013-03-04 18:50:00,
2013-03-04 13:58:00,24.1,20.2,30.19,NNW,338,7.0,13.0,85,0.00,,---,0.00,VWS V14.00,2013-03-04 18:58:00,
2013-03-04 14:06:00,24.1,20.0,30.19,NNW,338,5.0,10.0,84,0.00,,---,0.00,VWS V14.00,2013-03-04 19:06:00,
2013-03-04 14:14:00,24.1,20.0,30.19,NNW,338,4.0,12.0,84,0.00,,---,0.00,VWS V14.00,2013-03-04 19:14:00,
2013-03-04 14:22:00,23.9,19.5,30.19,NNW,338,8.0,15.0,83,0.00,,---,0.00,VWS V14.00,2013-03-04 19:22:00,
2013-03-04 14:30:00,23.7,19.6,30.20,NNW,338,9.0,15.0,84,0.00,,---,0.00,VWS V14.00,2013-03-04 19:30:00,
2013-03-04 14:38:00,23.5,19.4,30.20,NNW,338,10.0,16.0,84,0.00,,---,0.00,VWS V14.00,2013-03-04 19:38:00,
2013-03-04 14:46:00,23.3,19.2,30.20,NNW,338,9.0,17.0,84,0.00,,---,0.00,VWS V14.00,2013-03-04 19:46:00,
2013-03-04 14:54:00,23.3,19.2,30.20,NNW,338,10.0,17.0,84,0.00,,---,0.00,VWS V14.00,2013-03-04 19:54:00,
2013-03-04 15:00:00,23.3,19.5,30.20,NNW,338,6.0,17.0,85,0.00,,---,0.00,VWS V14.00,2013-03-04 20:00:00,
2013-03-04 15:10:00,23.2,19.1,30.20,NNW,338,5.0,13.0,84,0.00,,---,0.00,VWS V14.00,2013-03-04 20:10:00,
2013-03-04 15:18:00,23.3,19.5,30.20,NNW,338,9.0,14.0,85,0.00,,---,0.00,VWS V14.00,2013-03-04 20:18:00,
2013-03-04 15:26:00,23.0,19.2,30.20,NNW,338,5.0,15.0,85,0.00,,---,0.00,VWS V14.00,2013-03-04 20:26:00,
2013-03-04 15:34:00,23.1,19.3,30.20,NNW,338,4.0,9.0,85,0.00,,---,0.00,VWS V14.00,2013-03-04 20:34:00,
2013-03-04 15:42:00,23.2,19.4,30.20,NNW,338,4.0,10.0,85,0.00,,---,0.00,VWS V14.00,2013-03-04 20:42:00,
2013-03-04 15:50:00,23.3,19.2,30.21,NNW,338,1.0,10.0,84,0.00,,---,0.00,VWS V14.00,2013-03-04 20:50:00,
2013-03-04 15:58:00,23.2,19.1,30.21,NNW,338,5.0,15.0,84,0.00,,---,0.00,VWS V14.00,2013-03-04 20:58:00,
2013-03-04 16:06:00,23.2,19.1,30.21,NNW,338,8.0,8.0,84,0.00,,---,0.00,VWS V14.00,2013-03-04 21:06:00,
2013-03-04 16:14:00,23.1,19.3,30.21,NNW,338,5.0,9.0,85,0.00,,---,0.00,VWS V14.00,2013-03-04 21:14:00,
2013-03-04 16:22:00,23.0,18.9,30.21,NNW,338,7.0,14.0,84,0.00,,---,0.00,VWS V14.00,2013-03-04 21:22:00,
2013-03-04 16:30:00,23.0,18.9,30.21,NNW,338,6.0,14.0,84,0.00,,---,0.00,VWS V14.00,2013-03-04 21:30:00,
2013-03-04 16:38:00,22.9,18.8,30.21,NNW,338,7.0,12.0,84,0.00,,---,0.00,VWS V14.00,2013-03-04 21:38:00,
2013-03-04 16:46:00,22.7,18.6,30.21,NNW,338,6.0,12.0,84,0.00,,---,0.00,VWS V14.00,2013-03-04 21:46:00,
2013-03-04 16:54:00,22.7,18.6,30.21,NNW,338,6.0,12.0,84,0.00,,---,0.00,VWS V14.00,2013-03-04 21:54:00,
2013-03-04 17:00:00,22.7,18.6,30.21,NNW,338,2.0,12.0,84,0.00,,---,0.00,VWS V14.00,2013-03-04 22:00:00,
2013-03-04 17:10:00,22.6,18.5,30.21,NNW,338,4.0,11.0,84,0.00,,---,0.00,VWS V14.00,2013-03-04 22:10:00,
2013-03-04 17:18:00,22.6,18.5,30.21,NNW,338,4.0,11.0,84,0.00,,---,0.00,VWS V14.00,2013-03-04 22:18:00,
2013-03-04 17:27:00,22.5,18.4,30.21,NNW,338,3.0,11.0,84,0.00,,---,0.00,VWS V14.00,2013-03-04 22:27:00,
2013-03-04 17:35:00,22.4,18.3,30.21,NNW,338,5.0,11.0,84,0.00,,---,0.00,VWS V14.00,2013-03-04 22:35:00,
2013-03-04 17:43:00,22.3,18.2,30.22,NNW,338,3.0,11.0,84,0.00,,---,0.00,VWS V14.00,2013-03-04 22:43:00,
2013-03-04 17:51:00,22.3,18.2,30.21,NNW,338,3.0,11.0,84,0.00,,---,0.00,VWS V14.00,2013-03-04 22:51:00,
2013-03-04 17:59:00,22.2,18.1,30.21,NNW,338,4.0,11.0,84,0.00,,---,0.00,VWS V14.00,2013-03-04 22:59:00,
2013-03-04 18:07:00,22.1,18.0,30.22,NNW,338,4.0,7.0,84,0.00,,---,0.00,VWS V14.00,2013-03-04 23:07:00,
2013-03-04 18:15:00,22.1,17.7,30.22,NNW,338,6.0,11.0,83,0.00,,---,0.00,VWS V14.00,2013-03-04 23:15:00,
2013-03-04 18:23:00,22.0,17.6,30.22,NNW,338,5.0,11.0,83,0.00,,---,0.00,VWS V14.00,2013-03-04 23:23:00,
2013-03-04 18:30:00,22.0,17.6,30.22,NNW,338,1.0,11.0,83,0.00,,---,0.00,VWS V14.00,2013-03-04 23:30:00,
2013-03-04 18:39:00,21.9,17.5,30.23,NNW,338,3.0,10.0,83,0.00,,---,0.00,VWS V14.00,2013-03-04 23:39:00,
2013-03-04 18:47:00,21.9,17.5,30.23,NNW,338,0.0,10.0,83,0.00,,---,0.00,VWS V14.00,2013-03-04 23:47:00,
2013-03-04 18:55:00,21.8,17.4,30.23,NNW,338,6.0,10.0,83,0.00,,---,0.00,VWS V14.00,2013-03-04 23:55:00,
2013-03-04 19:00:00,21.8,17.7,30.23,NNW,338,3.0,10.0,84,0.00,,---,0.00,VWS V14.00,2013-03-05 00:00:00,
2013-03-04 19:11:00,21.8,17.7,30.23,NNW,338,4.0,8.0,84,0.00,,---,0.00,VWS V14.00,2013-03-05 00:11:00,
2013-03-04 19:19:00,21.8,17.7,30.23,NNW,338,3.0,10.0,84,0.00,,---,0.00,VWS V14.00,2013-03-05 00:19:00,
2013-03-04 19:27:00,21.8,17.7,30.23,NNW,338,3.0,10.0,84,0.00,,---,0.00,VWS V14.00,2013-03-05 00:27:00,
2013-03-04 19:35:00,21.8,17.7,30.23,NNW,338,4.0,8.0,84,0.00,,---,0.00,VWS V14.00,2013-03-05 00:35:00,
2013-03-04 19:43:00,21.8,17.7,30.23,NNW,338,3.0,8.0,84,0.00,,---,0.00,VWS V14.00,2013-03-05 00:43:00,
2013-03-04 19:51:00,21.8,17.7,30.23,NNW,338,4.0,10.0,84,0.00,,---,0.00,VWS V14.00,2013-03-05 00:51:00,
2013-03-04 19:59:00,21.9,17.8,30.23,NNW,338,2.0,10.0,84,0.00,,---,0.00,VWS V14.00,2013-03-05 00:59:00,
2013-03-04 20:07:00,22.0,17.9,30.23,NNW,338,9.0,9.0,84,0.00,,---,0.00,VWS V14.00,2013-03-05 01:07:00,
2013-03-04 20:15:00,22.0,17.9,30.23,NNW,338,2.0,9.0,84,0.00,,---,0.00,VWS V14.00,2013-03-05 01:15:00,
2013-03-04 20:23:00,22.1,18.0,30.23,NNW,338,3.0,9.0,84,0.00,,---,0.00,VWS V14.00,2013-03-05 01:23:00,
2013-03-04 20:30:00,22.1,18.0,30.23,NNW,338,2.0,9.0,84,0.00,,---,0.00,VWS V14.00,2013-03-05 01:30:00,
2013-03-04 20:39:00,22.1,18.0,30.23,NNW,338,4.0,5.0,84,0.00,,---,0.00,VWS V14.00,2013-03-05 01:39:00,
2013-03-04 20:47:00,22.2,18.1,30.23,NNW,338,2.0,9.0,84,0.00,,---,0.00,VWS V14.00,2013-03-05 01:47:00,
2013-03-04 20:55:00,22.3,18.2,30.23,NNW,338,5.0,9.0,84,0.00,,---,0.00,VWS V14.00,2013-03-05 01:55:00,
2013-03-04 21:00:00,22.3,18.2,30.23,NNW,338,4.0,9.0,84,0.00,,---,0.00,VWS V14.00,2013-03-05 02:00:00,
2013-03-04 21:11:00,22.4,18.3,30.23,NNW,338,6.0,8.0,84,0.00,,---,0.00,VWS V14.00,2013-03-05 02:11:00,
2013-03-04 21:19:00,22.4,18.3,30.23,NNW,338,3.0,8.0,84,0.00,,---,0.00,VWS V14.00,2013-03-05 02:19:00,
2013-03-04 21:27:00,22.4,18.3,30.23,NNW,338,2.0,8.0,84,0.00,,---,0.00,VWS V14.00,2013-03-05 02:27:00,
2013-03-04 21:35:00,22.4,18.3,30.23,NNW,338,3.0,5.0,84,0.00,,---,0.00,VWS V14.00,2013-03-05 02:35:00,
2013-03-04 21:43:00,22.4,18.3,30.23,NNW,338,3.0,5.0,84,0.00,,---,0.00,VWS V14.00,2013-03-05 02:43:00,
2013-03-04 21:51:00,22.4,18.3,30.23,NNW,338,2.0,8.0,84,0.00,,---,0.00,VWS V14.00,2013-03-05 02:51:00,
2013-03-04 21:59:00,22.5,18.4,30.23,NNW,338,3.0,8.0,84,0.00,,---,0.00,VWS V14.00,2013-03-05 02:59:00,
2013-03-04 22:07:00,22.5,18.7,30.23,NNW,338,0.0,3.0,85,0.00,,---,0.00,VWS V14.00,2013-03-05 03:07:00,
2013-03-04 22:15:00,22.6,18.8,30.23,NNW,338,2.0,6.0,85,0.00,,---,0.00,VWS V14.00,2013-03-05 03:15:00,
2013-03-04 22:23:00,22.6,18.8,30.23,NNW,338,2.0,6.0,85,0.00,,---,0.00,VWS V14.00,2013-03-05 03:23:00,
2013-03-04 22:30:00,22.7,18.9,30.23,NNW,338,4.0,6.0,85,0.00,,---,0.00,VWS V14.00,2013-03-05 03:30:00,
2013-03-04 22:39:00,22.7,18.9,30.23,NNW,338,4.0,7.0,85,0.00,,---,0.00,VWS V14.00,2013-03-05 03:39:00,
2013-03-04 22:47:00,22.7,18.9,30.23,NNW,338,1.0,7.0,85,0.00,,---,0.00,VWS V14.00,2013-03-05 03:47:00,
2013-03-04 22:55:00,22.7,18.9,30.24,NNW,338,3.0,7.0,85,0.00,,---,0.00,VWS V14.00,2013-03-05 03:55:00,
2013-03-04 23:03:00,22.7,19.1,30.23,NNW,338,5.0,6.0,86,0.00,,---,0.00,VWS V14.00,2013-03-05 04:03:00,
2013-03-04 23:11:00,22.7,19.1,30.23,NNW,338,1.0,6.0,86,0.00,,---,0.00,VWS V14.00,2013-03-05 04:11:00,
2013-03-04 23:19:00,22.6,19.0,30.23,NNW,338,3.0,6.0,86,0.00,,---,0.00,VWS V14.00,2013-03-05 04:19:00,
2013-03-04 23:27:00,22.5,19.0,30.23,NNW,338,4.0,6.0,86,0.00,,---,0.00,VWS V14.00,2013-03-05 04:27:00,
2013-03-04 23:35:00,22.4,18.9,30.23,NNW,338,5.0,5.0,86,0.00,,---,0.00,VWS V14.00,2013-03-05 04:35:00,
2013-03-04 23:43:00,22.3,18.5,30.23,NNW,338,1.0,5.0,85,0.00,,---,0.00,VWS V14.00,2013-03-05 04:43:00,
2013-03-04 23:51:00,22.2,18.1,30.23,NNW,338,4.0,5.0,84,0.00,,---,0.00,VWS V14.00,2013-03-05 04:51:00,
2013-03-04 23:59:00,22.0,17.9,30.23,NNW,338,2.0,6.0,84,0.00,,---,0.00,VWS V14.00,2013-03-05 04:59:00,